GW2341 Weather Reports


time (UTC)temp
C
wind
direction
speed
KPH
gust
KPH
rain 1hr
cm
rain 24hr
cm
rain mn
cm
humidity
%
barometer
mb
20260506044936 19 198 1.6 1.6 0.00 0.00 0.00 63 1014.3
20260506044435 19 198 0.0 0.0 0.00 0.00 0.00 64 1014.2
20260506043931 20 198 0.0 0.0 0.00 0.00 0.00 63 1013.9
20260506043428 20 177 0.0 4.8 0.00 0.00 0.00 62 1013.9
20260506042926 20 189 0.0 3.2 0.00 0.00 0.00 62 1014.1
20260506042425 20 185 0.0 1.6 0.00 0.00 0.00 63 1014.3
20260506041923 19 189 0.0 4.8 0.00 0.00 0.00 64 1014.2
20260506041420 19 181 0.0 0.0 0.00 0.00 0.00 64 1014.2
20260506040917 19 169 0.0 1.6 0.00 0.00 0.00 65 1014.3
20260506040415 18 168 0.0 0.0 0.00 0.00 0.00 66 1014.0
20260506035911 18 168 0.0 0.0 0.00 0.00 0.00 65 1014.0
20260506035409 18 167 0.0 0.0 0.00 0.00 0.00 66 1014.2
20260506034905 18 167 0.0 0.0 0.00 0.00 0.00 66 1014.0
20260506034402 19 177 0.0 0.0 0.00 0.00 0.00 65 1014.1
20260506033859 19 178 0.0 0.0 0.00 0.00 0.00 64 1014.0
20260506033356 19 177 0.0 0.0 0.00 0.00 0.00 64 1014.0
20260506032853 19 178 0.0 0.0 0.00 0.00 0.00 63 1013.9
20260506032350 20 178 0.0 1.6 0.00 0.00 0.00 63 1014.0
20260506031847 20 178 0.0 0.0 0.00 0.00 0.00 62 1014.0
20260506031344 20 178 0.0 0.0 0.00 0.00 0.00 61 1014.2
20260506030842 20 178 0.0 0.0 0.00 0.00 0.00 61 1014.1
20260506030340 20 178 0.0 0.0 0.00 0.00 0.00 61 1014.3
20260506025836 20 172 0.0 0.0 0.00 0.00 0.00 60 1014.3
20260506025333 20 172 0.0 0.0 0.00 0.00 0.00 60 1014.5
20260506024830 20 183 0.0 3.2 0.00 0.00 0.00 58 1014.4
20260506024326 20 183 0.0 0.0 0.00 0.00 0.00 59 1014.4
20260506023823 20 180 0.0 1.6 0.00 0.00 0.00 59 1014.4
20260506023320 20 180 0.0 1.6 0.00 0.00 0.00 59 1014.3
20260506022816 21 179 0.0 0.0 0.00 0.00 0.00 59 1014.1
20260506022314 21 183 0.0 1.6 0.00 0.00 0.00 59 1014.1
20260506021812 21 169 0.0 1.6 0.00 0.00 0.00 58 1014.1
20260506021309 20 170 0.0 0.0 0.00 0.00 0.00 59 1013.9
20260506020805 21 140 0.0 0.0 0.00 0.00 0.00 58 1013.9
20260506020303 21 139 0.0 1.6 0.00 0.00 0.00 58 1013.7
20260506015801 21 157 0.0 0.0 0.00 0.00 0.00 57 1013.8
20260506015258 21 171 0.0 0.0 0.00 0.00 0.00 57 1013.8
20260506014755 21 152 0.0 0.0 0.00 0.00 0.00 57 1014.2
20260506014251 21 173 0.0 0.0 0.00 0.00 0.00 57 1014.0
20260506013748 22 173 0.0 0.0 0.00 0.00 0.00 55 1014.2
20260506013246 22 174 0.0 3.2 0.00 0.00 0.00 55 1014.2
20260506012742 22 168 0.0 0.0 0.00 0.00 0.00 54 1014.2
20260506012239 22 168 0.0 0.0 0.00 0.00 0.00 55 1014.4
20260506011736 22 166 0.0 0.0 0.00 0.00 0.00 54 1014.2
20260506011232 22 166 0.0 0.0 0.00 0.00 0.00 53 1014.4
20260506010731 22 168 0.0 0.0 0.00 0.00 0.00 54 1014.3
20260506010228 22 168 0.0 0.0 0.00 0.00 0.00 53 1014.2
20260506005725 22 168 0.0 0.0 0.00 0.00 0.00 53 1014.3
20260506005222 22 168 0.0 0.0 0.00 0.00 0.00 53 1014.2
20260506004717 22 169 0.0 0.0 0.00 0.00 0.00 53 1014.2
20260506004215 22 169 0.0 0.0 0.00 0.00 0.00 52 1014.2
20260506003711 22 169 0.0 0.0 0.00 0.00 0.00 52 1014.3
20260506003208 22 169 0.0 0.0 0.00 0.00 0.00 50 1014.1
20260506002704 22 169 0.0 0.0 0.00 0.00 0.00 50 1014.4
20260506002200 23 193 0.0 1.6 0.00 0.00 0.00 49 1014.2
20260506001656 23 199 1.6 3.2 0.00 0.00 0.00 48 1014.3
20260506001154 23 180 0.0 1.6 0.00 0.00 0.00 49 1014.3
20260506000650 23 184 0.0 0.0 0.00 0.00 0.00 48 1014.0
20260506000148 23 184 0.0 0.0 0.00 0.00 0.00 48 1014.0
20260505235646 23 193 1.6 3.2 0.00 0.00 0.00 47 1014.2
20260505235143 23 201 0.0 3.2 0.00 0.00 0.00 46 1014.1
20260505234639 23 191 1.6 8.0 0.00 0.00 0.00 46 1014.0
20260505234136 24 196 4.8 8.0 0.00 0.00 0.00 45 1014.0
20260505233633 23 181 3.2 4.8 0.00 0.00 0.00 46 1014.1
20260505233131 24 93 1.6 4.8 0.00 0.00 0.00 45 1013.9
20260505232628 24 163 0.0 0.0 0.00 0.00 0.00 44 1013.8
20260505232126 25 198 6.4 8.0 0.00 0.00 0.00 42 1013.6
20260505231622 25 183 0.0 3.2 0.00 0.00 0.00 43 1013.8
20260505231121 25 206 1.6 9.7 0.00 0.00 0.00 41 1013.9
20260505230619 25 303 8.0 17.7 0.00 0.00 0.00 40 1013.8
20260505230115 26 152 6.4 11.3 0.00 0.00 0.00 40 1013.8
20260505225612 25 184 0.0 4.8 0.00 0.00 0.00 40 1013.8
20260505225108 26 195 8.0 16.1 0.00 0.00 0.00 39 1013.9
20260505224605 26 163 4.8 8.0 0.00 0.00 0.00 39 1014.0
20260505224102 26 169 1.6 3.2 0.00 0.00 0.00 40 1013.9
20260505223554 26 192 4.8 8.0 0.00 0.00 0.00 40 1013.8
20260505223050 26 267 4.8 4.8 0.00 0.00 0.00 38 1013.7
20260505222547 26 208 3.2 12.9 0.00 0.00 0.00 39 1013.9
20260505222043 26 231 4.8 22.5 0.00 0.00 0.00 38 1013.9
20260505221540 26 191 4.8 14.5 0.00 0.00 0.00 38 1013.9
20260505221036 26 123 6.4 11.3 0.00 0.00 0.00 39 1013.9
20260505220534 26 185 3.2 9.7 0.00 0.00 0.00 38 1014.0
20260505220032 26 259 4.8 9.7 0.00 0.00 0.00 40 1013.8
20260505215529 27 140 6.4 9.7 0.00 0.00 0.00 39 1013.9
20260505215027 26 161 4.8 8.0 0.00 0.00 0.00 40 1013.9
20260505214525 26 162 1.6 4.8 0.00 0.00 0.00 39 1014.2
20260505214021 26 109 4.8 8.0 0.00 0.00 0.00 39 1014.0
20260505213519 26 283 4.8 11.3 0.00 0.00 0.00 39 1013.8
20260505213015 26 206 8.0 22.5 0.00 0.00 0.00 39 1014.1
20260505212512 27 256 11.3 12.9 0.00 0.00 0.00 38 1014.1
20260505212009 26 181 1.6 9.7 0.00 0.00 0.00 39 1014.1
20260505211507 26 251 4.8 20.9 0.00 0.00 0.00 38 1014.2
20260505211003 27 266 3.2 4.8 0.00 0.00 0.00 36 1014.1
20260505210500 27 135 3.2 4.8 0.00 0.00 0.00 38 1014.1
20260505205956 27 191 3.2 9.7 0.00 0.00 0.00 38 1014.3
20260505205455 26 202 1.6 11.3 0.00 0.00 0.00 42 1014.2
20260505204951 26 148 1.6 8.0 0.00 0.00 0.00 39 1014.3
20260505204449 26 197 3.2 8.0 0.00 0.00 0.00 39 1014.2
20260505203946 27 266 8.0 11.3 0.00 0.00 0.00 37 1014.1
20260505203443 26 74 0.0 9.7 0.00 0.00 0.00 37 1014.2
20260505202939 26 223 3.2 11.3 0.00 0.00 0.00 39 1014.5
20260505202436 26 168 4.8 9.7 0.00 0.00 0.00 38 1014.3
20260505201932 25 225 3.2 8.0 0.00 0.00 0.00 38 1014.5
20260505201429 25 207 4.8 9.7 0.00 0.00 0.00 40 1014.5
20260505200927 26 146 1.6 8.0 0.00 0.00 0.00 40 1014.6
20260505200424 26 258 6.4 9.7 0.00 0.00 0.00 39 1014.4
20260505195920 26 178 4.8 9.7 0.00 0.00 0.00 40 1014.5
20260505195417 26 138 1.6 3.2 0.00 0.00 0.00 39 1014.7
20260505194915 26 268 6.4 11.3 0.00 0.00 0.00 38 1015.0
20260505194412 27 248 6.4 9.7 0.00 0.00 0.00 38 1015.1
20260505193911 27 176 3.2 11.3 0.00 0.00 0.00 38 1015.1
20260505193410 27 295 6.4 11.3 0.00 0.00 0.00 36 1015.2
20260505192907 26 268 6.4 17.7 0.00 0.00 0.00 37 1015.2
20260505192405 26 238 4.8 8.0 0.00 0.00 0.00 37 1015.3
20260505191902 26 270 4.8 14.5 0.00 0.00 0.00 38 1015.5
20260505191401 26 257 3.2 11.3 0.00 0.00 0.00 38 1015.4
20260505190857 26 178 1.6 4.8 0.00 0.00 0.00 42 1015.5
20260505190353 26 218 6.4 11.3 0.00 0.00 0.00 39 1015.6
20260505185848 26 207 8.0 12.9 0.00 0.00 0.00 39 1015.8
20260505185345 25 215 1.6 4.8 0.00 0.00 0.00 42 1015.7
20260505184841 25 184 3.2 9.7 0.00 0.00 0.00 41 1015.7
20260505184338 26 209 3.2 9.7 0.00 0.00 0.00 39 1015.8
20260505183835 26 285 11.3 12.9 0.00 0.00 0.00 37 1015.7
20260505183332 26 217 3.2 11.3 0.00 0.00 0.00 40 1015.7
20260505182829 25 345 3.2 12.9 0.00 0.00 0.00 39 1015.8
20260505182326 25 208 3.2 4.8 0.00 0.00 0.00 42 1015.7
20260505181823 25 165 3.2 4.8 0.00 0.00 0.00 39 1016.1
20260505181320 25 188 8.0 11.3 0.00 0.00 0.00 40 1016.1
20260505180816 25 227 8.0 9.7 0.00 0.00 0.00 42 1016.2
20260505180313 25 181 0.0 9.7 0.00 0.00 0.00 42 1016.6
20260505175809 24 215 8.0 11.3 0.00 0.00 0.00 43 1016.5
20260505175306 24 165 0.0 11.3 0.00 0.00 0.00 44 1016.7
20260505174802 25 198 6.4 16.1 0.00 0.00 0.00 42 1016.8
20260505174300 25 192 3.2 8.0 0.00 0.00 0.00 41 1016.9
20260505173755 25 246 4.8 9.7 0.00 0.00 0.00 40 1016.9
20260505173252 25 205 6.4 11.3 0.00 0.00 0.00 39 1016.9
20260505172749 25 212 8.0 16.1 0.00 0.00 0.00 40 1017.1
20260505172246 24 172 1.6 12.9 0.00 0.00 0.00 39 1016.9
20260505171746 24 182 1.6 11.3 0.00 0.00 0.00 44 1016.7
20260505171243 24 234 6.4 11.3 0.00 0.00 0.00 42 1017.0
20260505170740 24 295 1.6 11.3 0.00 0.00 0.00 41 1016.9
20260505170237 25 281 6.4 8.0 0.00 0.00 0.00 40 1016.7
20260505165732 24 271 4.8 8.0 0.00 0.00 0.00 41 1016.9
20260505165228 24 188 4.8 8.0 0.00 0.00 0.00 42 1016.8
20260505164724 25 234 4.8 11.3 0.00 0.00 0.00 43 1016.8
20260505164221 24 185 0.0 1.6 0.00 0.00 0.00 43 1016.7
20260505163719 24 180 3.2 8.0 0.00 0.00 0.00 39 1016.7
20260505163217 24 240 4.8 22.5 0.00 0.00 0.00 40 1017.0
20260505162714 23 215 4.8 9.7 0.00 0.00 0.00 47 1017.1
20260505162211 23 257 4.8 4.8 0.00 0.00 0.00 45 1016.8
20260505161708 23 234 3.2 11.3 0.00 0.00 0.00 43 1017.2
20260505161206 23 192 3.2 8.0 0.00 0.00 0.00 47 1017.1
20260505160703 23 159 4.8 4.8 0.00 0.00 0.00 46 1017.2
20260505160201 22 282 8.0 9.7 0.00 0.00 0.00 48 1017.3
20260505153140 23 197 0.0 1.6 0.00 0.00 0.00 52 1017.5
20260505152636 23 98 1.6 3.2 0.00 0.00 0.00 51 1017.4
20260505152132 22 110 1.6 3.2 0.00 0.00 0.00 53 1017.3
20260505151628 21 277 4.8 8.0 0.00 0.00 0.00 55 1017.6
20260505151125 21 226 1.6 9.7 0.00 0.00 0.00 56 1017.5
20260505150621 22 211 3.2 4.8 0.00 0.00 0.00 55 1017.7
20260505150119 21 187 0.0 3.2 0.00 0.00 0.00 57 1017.5
20260505140547 18 156 0.0 4.8 0.00 0.00 0.00 67 1017.1
20260505125000 15 218 3.2 8.0 0.00 0.00 0.00 79 1016.9
20260505124457 15 187 0.0 1.6 0.00 0.00 0.00 79 1016.8
20260505123953 15 220 1.6 4.8 0.00 0.00 0.00 79 1016.7
20260505123450 15 183 3.2 8.0 0.00 0.00 0.00 79 1016.6
20260505122946 15 183 1.6 3.2 0.00 0.00 0.00 79 1016.6
20260505122443 15 192 1.6 3.2 0.00 0.00 0.00 79 1016.6
20260505121940 15 179 0.0 0.0 0.00 0.00 0.00 78 1016.6
20260505121437 15 187 0.0 0.0 0.00 0.00 0.00 78 1016.4
20260505120933 15 175 0.0 0.0 0.00 0.00 0.00 80 1016.5
20260505120430 14 183 0.0 0.0 0.00 0.00 0.00 82 1016.7
20260505115928 13 191 1.6 3.2 0.00 0.00 0.00 82 1016.6
20260505115425 13 183 0.0 1.6 0.00 0.00 0.00 82 1016.6
20260505114923 13 191 3.2 4.8 0.00 0.00 0.00 83 1016.4
20260505114419 13 185 1.6 1.6 0.00 0.00 0.00 84 1016.4
20260505113915 12 168 0.0 0.0 0.00 0.00 0.00 86 1016.4
20260505113412 12 185 0.0 0.0 0.00 0.00 0.00 90 1016.2
20260505112908 11 195 0.0 1.6 0.00 0.00 0.00 94 1016.3
20260505112406 10 166 0.0 0.0 0.00 0.00 0.00 95 1016.1
20260505111902 10 166 0.0 0.0 0.00 0.00 0.00 95 1016.3
20260505111357 10 167 0.0 0.0 0.00 0.00 0.00 95 1016.2
20260505110853 10 169 0.0 0.0 0.00 0.00 0.00 94 1016.2
20260505110351 10 172 0.0 0.0 0.00 0.00 0.00 94 1016.4
20260505101821 12 181 0.0 0.0 0.00 0.00 0.00 86 1016.0
20260505101316 12 186 0.0 0.0 0.00 0.00 0.00 86 1016.1
20260505100812 12 187 0.0 1.6 0.00 0.00 0.00 87 1015.6
20260505100309 11 192 1.6 4.8 0.00 0.00 0.00 90 1015.7
20260505095805 10 152 0.0 0.0 0.00 0.00 0.00 91 1015.6
20260505095304 10 152 0.0 0.0 0.00 0.00 0.00 90 1015.6
20260505094758 10 152 0.0 0.0 0.00 0.00 0.00 89 1015.7
20260505094255 10 152 0.0 0.0 0.00 0.00 0.00 89 1015.8
20260505093750 10 152 0.0 0.0 0.00 0.00 0.00 88 1015.7
20260505093248 11 152 0.0 0.0 0.00 0.00 0.00 88 1015.6
20260505092746 11 152 0.0 0.0 0.00 0.00 0.00 87 1015.5
20260505092244 11 151 0.0 0.0 0.00 0.00 0.00 87 1015.5
20260505091740 11 152 0.0 0.0 0.00 0.00 0.00 86 1015.7
20260505091239 11 152 0.0 0.0 0.00 0.00 0.00 86 1015.6
20260505090735 11 152 0.0 0.0 0.00 0.00 0.00 85 1015.5
20260505090234 11 152 0.0 0.0 0.00 0.00 0.00 85 1015.5
20260505085731 11 152 0.0 0.0 0.00 0.00 0.00 85 1015.6
20260505085229 11 153 0.0 0.0 0.00 0.00 0.00 85 1015.4
20260505084726 11 152 0.0 0.0 0.00 0.00 0.00 84 1015.5
20260505084225 11 154 0.0 0.0 0.00 0.00 0.00 84 1015.6
20260505083722 11 154 0.0 0.0 0.00 0.00 0.00 84 1015.6
20260505083218 11 154 0.0 0.0 0.00 0.00 0.00 83 1015.5
20260505082714 11 154 0.0 0.0 0.00 0.00 0.00 83 1015.5
20260505082212 11 154 0.0 0.0 0.00 0.00 0.00 82 1015.5
20260505081707 11 155 0.0 0.0 0.00 0.00 0.00 83 1015.4
20260505081205 11 156 0.0 1.6 0.00 0.00 0.00 82 1015.4
20260505080702 11 156 0.0 0.0 0.00 0.00 0.00 82 1015.5
20260505080158 11 156 0.0 0.0 0.00 0.00 0.00 81 1015.4
20260505075654 11 157 0.0 0.0 0.00 0.00 0.00 81 1015.5
20260505075151 11 156 0.0 0.0 0.00 0.00 0.00 81 1015.2
20260505074648 11 156 0.0 0.0 0.00 0.00 0.00 80 1015.6
20260505074145 11 156 0.0 0.0 0.00 0.00 0.00 79 1015.4
20260505073643 11 156 0.0 0.0 0.00 0.00 0.00 79 1015.1
20260505073141 12 156 0.0 0.0 0.00 0.00 0.00 78 1015.4
20260505072636 11 156 0.0 0.0 0.00 0.00 0.00 78 1015.2
20260505072133 11 156 0.0 0.0 0.00 0.00 0.00 79 1015.3
20260505071628 11 158 0.0 0.0 0.00 0.00 0.00 79 1015.5
20260505071126 11 158 0.0 0.0 0.00 0.00 0.00 78 1015.5
20260505070623 11 157 0.0 0.0 0.00 0.00 0.00 78 1015.1
20260505070119 12 157 0.0 0.0 0.00 0.00 0.00 78 1015.5
20260505065615 12 158 0.0 0.0 0.00 0.00 0.00 78 1015.3
20260505065112 12 158 0.0 0.0 0.00 0.00 0.00 78 1015.4
20260505064609 12 158 0.0 0.0 0.00 0.00 0.00 78 1015.2
20260505064108 11 158 0.0 0.0 0.00 0.00 0.00 79 1015.2
20260505063604 12 158 0.0 0.0 0.00 0.00 0.00 79 1015.3
20260505063100 12 158 0.0 0.0 0.00 0.00 0.00 78 1015.0
20260505062557 12 157 0.0 0.0 0.00 0.00 0.00 79 1015.3
20260505062054 11 167 0.0 1.6 0.00 0.00 0.00 78 1015.5
20260505061552 11 168 0.0 0.0 0.00 0.00 0.00 77 1015.3
20260505061049 12 168 0.0 0.0 0.00 0.00 0.00 77 1015.2
20260505060547 12 168 0.0 0.0 0.00 0.00 0.00 76 1015.3
20260505060044 12 168 0.0 0.0 0.00 0.00 0.00 75 1015.3
20260505055538 13 168 0.0 0.0 0.00 0.00 0.00 75 1015.2
20260505055035 13 168 0.0 0.0 0.00 0.00 0.00 72 1015.3
20260505054533 13 168 0.0 1.6 0.00 0.00 0.00 72 1015.3
20260505054031 14 183 0.0 1.6 0.00 0.00 0.00 69 1015.2
20260505053528 15 184 0.0 0.0 0.00 0.00 0.00 64 1015.1
20260505053024 15 184 0.0 0.0 0.00 0.00 0.00 58 1015.2
20260505052521 16 184 0.0 0.0 0.00 0.00 0.00 58 1015.1
20260505052019 16 183 0.0 0.0 0.00 0.00 0.00 58 1015.4
20260505051515 16 185 0.0 3.2 0.00 0.00 0.00 58 1015.3
20260505051014 16 192 0.0 0.0 0.00 0.00 0.00 57 1015.5
20260505050511 16 185 0.0 0.0 0.00 0.00 0.00 58 1015.5